TimeAKDT,TemperatureF,Dew PointF,Humidity,Sea Level PressureIn,VisibilityMPH,Wind Direction,Wind SpeedMPH,Gust SpeedMPH,PrecipitationIn,Events,Conditions,WindDirDegrees,DateUTC
12:40 AM,51.8,48.2,88,29.66,10.0,WNW,8.1,-,N/A,,Scattered Clouds,290,2013-08-23 08:40:00
12:53 AM,51.1,48.0,89,29.66,10.0,West,9.2,-,N/A,,Scattered Clouds,280,2013-08-23 08:53:00
1:53 AM,52.0,46.9,83,29.68,10.0,NE,10.4,-,N/A,,Scattered Clouds,50,2013-08-23 09:53:00
2:53 AM,51.1,46.0,83,29.71,10.0,North,12.7,-,N/A,,Scattered Clouds,350,2013-08-23 10:53:00
3:53 AM,52.0,45.0,77,29.75,10.0,NNW,11.5,-,N/A,,Overcast,340,2013-08-23 11:53:00
4:53 AM,50.0,45.0,83,29.76,10.0,NNW,9.2,-,N/A,,Overcast,340,2013-08-23 12:53:00
5:53 AM,50.0,44.1,80,29.78,10.0,WNW,9.2,-,N/A,,Overcast,300,2013-08-23 13:53:00
6:53 AM,48.9,44.1,83,29.79,10.0,NW,6.9,-,N/A,,Overcast,320,2013-08-23 14:53:00
7:53 AM,48.0,43.0,83,29.79,10.0,WNW,5.8,-,N/A,,Scattered Clouds,290,2013-08-23 15:53:00
8:53 AM,46.9,43.0,86,29.80,10.0,West,4.6,-,N/A,,Scattered Clouds,260,2013-08-23 16:53:00
9:53 AM,50.0,41.0,71,29.80,10.0,West,10.4,-,N/A,,Scattered Clouds,280,2013-08-23 17:53:00
10:53 AM,51.1,39.9,66,29.82,10.0,NW,13.8,-,N/A,,Clear,320,2013-08-23 18:53:00
11:53 AM,54.0,39.0,57,29.82,10.0,North,10.4,-,N/A,,Scattered Clouds,350,2013-08-23 19:53:00
12:53 PM,55.9,39.9,55,29.83,10.0,WNW,10.4,-,N/A,,Clear,300,2013-08-23 20:53:00
1:53 PM,57.9,37.0,46,29.83,10.0,NNW,6.9,-,N/A,,Scattered Clouds,340,2013-08-23 21:53:00
2:53 PM,59.0,37.0,44,29.83,10.0,North,11.5,-,N/A,,Scattered Clouds,360,2013-08-23 22:53:00
3:53 PM,60.1,36.0,41,29.84,10.0,NNW,12.7,-,N/A,,Scattered Clouds,340,2013-08-23 23:53:00
4:53 PM,59.0,39.0,48,29.84,10.0,North,12.7,-,N/A,,Scattered Clouds,350,2013-08-24 00:53:00
5:53 PM,60.1,37.9,44,29.86,10.0,North,15.0,-,N/A,,Clear,350,2013-08-24 01:53:00
6:53 PM,60.1,39.9,47,29.87,10.0,North,13.8,-,N/A,,Partly Cloudy,350,2013-08-24 02:53:00
7:53 PM,55.9,39.9,55,29.88,10.0,North,16.1,-,N/A,,Partly Cloudy,360,2013-08-24 03:53:00
8:53 PM,55.0,39.9,57,29.89,10.0,North,10.4,-,N/A,,Clear,350,2013-08-24 04:53:00
9:53 PM,53.1,39.9,61,29.89,10.0,North,5.8,-,N/A,,Clear,10,2013-08-24 05:53:00
10:53 PM,46.9,39.0,74,29.91,10.0,Calm,Calm,-,N/A,,Clear,0,2013-08-24 06:53:00
11:53 PM,46.0,37.0,71,29.92,10.0,North,5.8,-,N/A,,Scattered Clouds,360,2013-08-24 07:53:00